Location: Unspecified
(47.5840°N, 122.3000°W)
Time: 18:02:59
(UTC+00:00)

USA 59 Rocket - Pass Details

Date: 14 March 2026
Orbit: 368 x 1667 km, 63.3° (Epoch: 14 April)

Event Time Altitude Azimuth Distance (km) Brightness Sun altitude
Exits shadow 11:44:48 12° 5° (N) 1,381 2.2 -26.7°
Maximum altitude 11:46:18 16° 35° (NE) 1,282 2.4 -26.5°
Drops below altitude 10° 11:48:38 10° 75° (ENE) 1,719 3.3 -26.2°
Sets 11:51:49 0° 97° (E) 2,832 4.3 -25.7°
